Other Public Products
Issued by NWS Grand Forks, ND

Home | Current Version | Previous Version | Text Only | Print | Product List | Glossary Off
Versions: 1 2 3 4 5 6 7 8 9 10 11 12 13 14 15 16 17 18 19 20 21 22 23 24 25 26 27 28 29 30 31 32 33 34 35 36 37 38 39 40 41 42 43 44 45 46 47 48 49 50

000
FPUS83 KFGF 290410
OPUFGF
PRAIRIE TO PINES WEATHER ROUNDUP
NATIONAL WEATHER SERVICE EASTERN NORTH DAKOTA/GRAND FORKS ND
1100 PM CDT TUE JUL 28 2015

 **SATELLITE DATA USED TO AUGMENT SKY COVER AT AUTOMATED STATIONS**
 *****  WEATHER ACROSS EASTERN NORTH DAKOTA  *****

CITY           SKY/WX    TMP DP  RH WIND       PRES   REMARKS
GRAND FORKS    MOCLDY    67  50  54 W31G44    29.56F
GRAND FORKS AF CLOUDY    66  51  59 W31G39    29.55F
GRAND CITY NWS   N/A     66 N/A N/A SW26        N/A
BUXTON         NOT AVBL
DEVILS LAKE    CLOUDY    61  52  72 W39G52    29.52R
FARGO          CLEAR     68  47  46 SW21G36   29.74F
WAHPETON ARPT  CLEAR     68  46  45 SW15G23   29.84S
$$

 *****  WEATHER ACROSS CENTRAL AND WESTERN NORTH DAKOTA  *****

CITY           SKY/WX    TMP DP  RH WIND       PRES   REMARKS
JAMESTOWN      MOCLDY    64  46  52 W33G48    29.75S
BISMARCK       CLOUDY    64  47  53 W31G47    29.90R
MINOT          LGT RAIN  59  51  75 W37G59    29.66R
MINOT AFB      PTCLDY    58  56  92 W40G60    29.62R
GARRISON         N/A     59  50  72 W35G52    29.78R
WILLISTON      CLOUDY    59  51  75 W17       29.89R
DICKINSON      PTCLDY    56  48  74 N7        29.96R
HETTINGER      CLEAR     59  42  53 W14       30.03R
$$

 *****  OTHER OBSERVATIONS NORTHEAST NORTH DAKOTA  *****

CITY           SKY/WX    TMP DP  RH WIND       PRES   REMARKS
WALHALLA       FAIR      63  61  94 MISG      29.37F
LANGDON        CLOUDY    59  57  94 SW24G35   29.42S
CAVALIER       CLOUDY    63  55  77 SW16G30   29.41F
GRAFTON        CLOUDY    64  54  68 SW30G49   29.49F
CANDO          NOT AVBL
FORT TOTTEN    NOT AVBL
ROLLA          MOCLDY    59  59 100 W25G40    29.44R
RUGBY          NOT AVBL
 ***** THE ABOVE OBSERVATIONS ARE NON NWS ARE NOT QUALITY
        CONTROLLED AND MAY MIS-REPORT RAIN FOR SNOW...
$$

 *****  OTHER OBSERVATIONS SOUTHEAST NORTH DAKOTA *****

CITY           SKY/WX    TMP DP  RH WIND       PRES   REMARKS
COOPERSTOWN    NOT AVBL
VALLEY CITY    NOT AVBL
OAKES            N/A     64  50  59 W14G23    29.86R
GWINNER        FAIR      66  48  52 W13G24    29.84F
BUFFALO        NOT AVBL
WYNDMERE         N/A     68  48  49 W12         N/A
 ***** THE ABOVE OBSERVATIONS ARE NON NWS ARE NOT QUALITY
       CONTROLLED AND MAY MIS-REPORT RAIN FOR SNOW...
$$

  *****  WEATHER ACROSS NORTHERN MINNESOTA  *****

CITY           SKY/WX    TMP DP  RH WIND       PRES   REMARKS
FLAG ISLAND    CLOUDY    70  54  56 S30G44    29.50F
WARROAD        CLEAR     66  54  63 SW17G26   29.55F
ROSEAU         CLEAR     66  54  63 S21G30    29.53F
HALLOCK        CLOUDY    66  52  59 SW25G40   29.45F
THF RVR FALLS  CLOUDY    66  50  55 SW21G36   29.60F
HALSTAD        NOT AVBL
FOSSTON        PTCLDY    63  52  67 SW22G35   29.69F
BAUDETTE       PTCLDY    68  51  54 SW18G31   29.60F
WASKISH        MOCLDY    70  54  56 SW24G31   29.66F
CROOKSTON      CLOUDY    68  50  52 SW29G39   29.62F
$$
  *****  WEATHER ACROSS CENTRAL AND WEST MINNESOTA  *****

CITY           SKY/WX    TMP DP  RH WIND       PRES   REMARKS
BEMIDJI        CLEAR     67  50  54 SW14      29.73F
PARK RAPIDS    CLEAR     69  49  48 SW15G26   29.79S
WADENA         CLEAR     68  50  52 SW16G26   29.83S
DETROIT LAKES  CLEAR     68  48  49 SW22G29   29.80F
MOORHEAD       CLEAR     66  48  52 SW17G23   29.76F
FERGUS FALLS   CLEAR     64  52  63 SW12      29.84S
ELBOW LAKE     FAIR      66  52  60 SW12G18   29.88R
MORRIS MN      CLEAR     64  55  72 SW8       29.90R
STAPLES        CLEAR     68  48  49 SW10G20   29.85R
WHEATON        CLEAR     66  50  55 W13       29.91R
$$
  *****  WEATHER ELSEWHERE ACROSS MINNESOTA  *****

CITY           SKY/WX    TMP DP  RH WIND       PRES   REMARKS
DULUTH         CLEAR     71  59  65 W13       29.81R
INTRNTL FALLS  CLEAR     67  56  67 VRB3      29.66F
ELY            PTCLDY    72  55  56 W14G21    29.76R
CLOQUET        CLEAR     70  55  60 SW7       29.82S
BRAINERD       CLEAR     68  56  65 SW10      29.85R
HIBBING        CLEAR     68  57  68 S5        29.77F
ALEXANDRIA     CLEAR     68  51  54 W16G22    29.90R
SAINT CLOUD    CLEAR     67  60  78 W8        29.90R
MINNEAPOLIS    PTCLDY    74  59  59 W7        29.91R
$$

  *****  WEATHER ACROSS SOUTH DAKOTA  *****

CITY           SKY/WX    TMP DP  RH WIND       PRES   REMARKS
SIOUX FALLS    CLEAR     67  59  75 CALM      30.03R
BROOKINGS      CLEAR     64  54  68 SW3       30.02R
WATERTOWN      CLEAR     68  52  56 W12       29.96R
HURON          CLEAR     61  55  81 W7        29.99R
SISSETON         N/A     68  50  52 W12       29.89R
ABERDEEN       CLEAR     60  52  74 SW9       29.93S
MITCHELL       CLEAR     66  54  65 W7        30.02R
PIERRE         CLEAR     67  50  54 W9        30.03R
MOBRIDGE       CLEAR     67  48  50 W12       29.95R
RAPID CITY     CLEAR     59  45  59 NW13      30.16R
$$

  *****  SOME WEATHER IN NEARBY STATES *****

CITY           SKY/WX    TMP DP  RH WIND       PRES   REMARKS
GLASGOW MT     MOCLDY    59  49  69 W7        29.99R
GREAT FALLS MT PTCLDY    56  39  53 W8        30.16R
CHEYENNE WY    CLOUDY    66  26  22 E9        30.31R
SCOTTSBLUFF NE PTCLDY    62  44  51 NE9       30.20R
OMAHA NE       CLOUDY    75  64  68 N8        30.00R
DES MOINES IA  TSTM      72  69  90 SW8       29.99R FOG
DAVENPORT IA   CLOUDY    76  74  93 E3        29.95R
CHICAGO IL     MOCLDY    79  74  84 S5        29.93F
EAU CLAIRE WI  CLOUDY    77  72  84 SW9       29.88R
LA CROSSE WI   CLOUDY    77  70  79 S7        29.91R
$$

  *****  SOME NATIONAL WEATHER *****

CITY           SKY/WX    TMP DP  RH WIND       PRES   REMARKS
LA GUARDIA NY  PTCLDY    83  69  62 SW8       29.96S
RALEIGH NC     MOCLDY    79  73  82 E5        30.00S
ATLANTA GA     MOCLDY    80  73  79 NW7       30.02R
NEW ORLEANS LA PTCLDY    85  73  67 SW8       30.00R HX  91
OKLAHOMA CITY  PTCLDY    75  68  78 S6        29.97R
ALBUQUERQUE NM CLOUDY    79  51  37 E17       30.19R
SALT LAKE CITY CLEAR     68  37  32 N6        30.22R
LOS ANGELES CA PTCLDY    69  65  86 W10       29.88R
BOISE ID       CLEAR     72  38  29 W5        30.18R
SEATTLE WA     PTCLDY    71  51  49 NW6       30.20S
$$

*** WEATHER ACROSS MANITOBA...SASKATCHEWAN AND ONTARIO ***
                ***ONTARIO***

CITY           SKY/WX    TMP DP  RH WIND       PRES   REMARKS
GERALDTON      CLEAR     70  59  68 S12G18    29.79F
THUNDER BAY    MOCLDY    66  63  88 NE7       29.73F
SIOUX LOOKOUT  PTCLDY    68  57  68 SW10G22   29.60F
TORONTO        PTCLDY    77  61  57 SE5       29.99S
BIG TROUT LK   LGT RAIN  75  66  73 S17G29    29.50S
PICKLE LAKE    NOT AVBL
DRYDEN         CLEAR     68  55  64 S15G23    29.59F
KENORA         MOCLDY    70  55  60 S16G33    29.51F
$$
                *** MANITOBA***

CITY           SKY/WX    TMP DP  RH WIND       PRES   REMARKS
BRANDON        LGT RAIN  61  59  94 W13G18    29.34R
DAUPHIN        CLOUDY    61  59  94 W10       29.30R
ISLAND LAKE    MOCLDY    68  64  88 SE7       29.34S
PILOT MOUND      N/A     61  59  94 W15G22      N/A
THE PAS        CLOUDY    61  57  88 N23G36    29.44S
THOMPSON       TSTM      59  57  94 NE18G32   29.40F
WINNIPEG       LGT RAIN  64  54  68 S26G43    29.32F
LYNN LAKE        N/A    N/A N/A N/A MISG        N/A
CHURCHILL      LGT RAIN  54  52  94 E9        29.67F
GILLAM         LGT RAIN  64  63  94 NE13G20   29.44F
$$
                ***SASKATCHEWAN***

CITY           SKY/WX    TMP DP  RH WIND       PRES   REMARKS
ESTEVAN        LGT RAIN  57  54  88 W29G39    29.73R
KINDERSLEY     PTCLDY    57  50  77 W6        29.94R
LLOYDMINSTER   PTCLDY    57  50  77 W8        29.91R
PRINCE ALBERT  MOCLDY    59  57  94 NW10      29.72R
REGINA         CLOUDY    57  55  94 NW21      29.77R
YORKTON        LGT RAIN  57  55  94 NW26G38   29.49R



USA.gov is the U.S. government's official web portal to all federal, state and local government web resources and services.